OSCAR 7 (AO-7) 1 07530U 74089B 26119.63941398 -.00000025 00000+0 13691-3 0 9995 2 07530 101.9927 132.3762 0011985 222.4688 259.8271 12.53697357354437 PHASE 3B (AO-10) 1 14129U 83058B 26118.35311208 -.00000137 00000+0 00000+0 0 9992 2 14129 25.8946 227.8674 6028461 101.9264 327.7175 2.05873308294462 UOSAT 2 (UO-11) 1 14781U 84021B 26119.89287094 .00001389 00000+0 14729-3 0 9998 2 14781 97.8024 86.0224 0007416 356.1857 3.9303 14.90666320249930 LUSAT (LO-19) 1 20442U 90005G 26119.62272803 .00000146 00000+0 69052-4 0 9991 2 20442 98.8882 140.0831 0011391 354.4376 5.6679 14.34107579895434 EYESAT A (AO-27) 1 22825U 93061C 26119.68222587 .00000111 00000+0 59147-4 0 9999 2 22825 98.6901 187.1073 0007421 238.3923 121.6536 14.30928740700060 ITAMSAT (IO-26) 1 22826U 93061D 26119.88578232 .00000110 00000+0 58251-4 0 9997 2 22826 98.6848 187.2234 0008156 219.6054 140.4534 14.31354323700400 RADIO ROSTO (RS15) 1 23439U 94085A 26119.95781056 -.00000038 00000+0 13317-3 0 9996 2 23439 64.8209 21.2166 0154576 12.6607 347.8132 11.27583820290466 JAS-2 (FO-29) 1 24278U 96046B 26119.88277807 .00000013 00000+0 50174-4 0 9998 2 24278 98.5297 335.3560 0349160 221.6676 135.7381 13.53271906466633 TECHSAT 1B (GO-32) 1 25397U 98043D 26119.94777603 .00000069 00000+0 49825-4 0 9998 2 25397 99.0062 111.4935 0001632 36.6482 323.4807 14.24418684444460 ISS (ZARYA) 1 25544U 98067A 26119.68381909 .00007324 00000+0 14081-3 0 9995 2 25544 51.6318 180.1788 0007117 4.9077 355.1979 15.49024031564230 PCSAT (NO-44) 1 26931U 01043C 26119.89582560 .00000159 00000+0 90378-4 0 9996 2 26931 67.0526 9.1747 0006473 264.0002 96.0363 14.31936910283536 SAUDISAT 1C (SO-50) 1 27607U 02058C 26119.60224970 .00001351 00000+0 17631-3 0 9996 2 27607 64.5517 279.2922 0075609 271.2999 87.9446 14.82938270257254 CUTE-1 (CO-55) 1 27844U 03031E 26119.56554426 .00000333 00000+0 16331-3 0 9993 2 27844 98.6755 128.7341 0008924 333.6679 26.4045 14.24304800184755 CUBESAT XI-IV (CO-57) 1 27848U 03031J 26119.95139711 .00000276 00000+0 14042-3 0 9999 2 27848 98.6786 128.8667 0009185 351.7833 8.3194 14.23594310184512 MOZHAETS 4 (RS22) 1 27939U 03042A 26120.01332384 .00000926 00000+0 15103-3 0 9993 2 27939 98.3466 303.0148 0012481 64.0082 88.1736 14.73379619208455 CUBESAT XI-V 1 28895U 05043F 26119.41107853 .00001580 00000+0 25690-3 0 9990 2 28895 98.2927 274.0282 0014037 5.7817 354.3549 14.72500443 94577 CUTE-1.7+APD II (CO-65) 1 32785U 08021C 26119.91511564 .00005319 00000+0 34048-3 0 9996 2 32785 97.8249 100.3557 0008775 181.4705 178.6499 15.08987301977919 SEEDS II (CO-66) 1 32791U 08021J 26119.53678457 .00018228 00000+0 60903-3 0 9998 2 32791 97.7522 115.1790 0005058 109.8166 250.3620 15.31067463979840 YUBILEINY (RS30) 1 32953U 08025A 26119.81161225 .00000021 00000+0 77490-4 0 9995 2 32953 82.5080 25.5280 0020613 57.7582 302.5493 12.43177694813681 KKS-1 (KISEKI) 1 33499U 09002H 26119.81373621 .00001563 00000+0 19904-3 0 9999 2 33499 98.1194 41.4945 0009352 87.2722 272.9561 14.82995895929020 SWISSCUBE 1 35932U 09051B 26119.72753025 .00001189 00000+0 24488-3 0 9994 2 35932 98.4066 26.7688 0007167 14.8038 345.3371 14.62385028882079 BEESAT-1 1 35933U 09051C 26119.98582618 .00000972 00000+0 20520-3 0 9993 2 35933 98.3995 26.7672 0005934 29.4584 330.6950 14.61639197882147 ITUPSAT1 1 35935U 09051E 26119.66056569 .00000915 00000+0 19914-3 0 9993 2 35935 98.4081 25.6797 0008312 37.1625 323.0149 14.60365149881650 XIWANG-1 (HOPE-1) 1 36122U 09072B 26119.90844421 .00000398 00000+0 11598-2 0 9998 2 36122 100.3988 74.5196 0007493 349.4934 10.6021 13.16439963786653 O/OREOS (USA 219) 1 37224U 10062C 26119.63965472 .00002205 00000+0 21469-3 0 9991 2 37224 71.9712 190.2882 0013931 166.9453 193.2081 14.93545794109395 JUGNU 1 37839U 11058B 26118.76698919 .00000478 00000+0 10965-3 0 9990 2 37839 19.9607 248.6716 0018445 250.9026 260.2548 14.13761682752026 SRMSAT 1 37841U 11058D 26119.94991742 .00000432 00000+0 90852-4 0 9998 2 37841 19.9736 351.4402 0011734 33.7234 81.6898 14.11564260750997 STRAND-1 1 39090U 13009E 26119.45953906 .00000321 00000+0 12247-3 0 9998 2 39090 98.3914 300.8957 0009054 24.5509 335.6107 14.37133735690065 ZACUBE-1 (TSHEPISOSAT) 1 39417U 13066B 26119.87617661 .00005751 00000+0 44875-3 0 9999 2 39417 97.8124 81.9531 0043751 55.0204 305.5115 15.00788638673484 GOMX-1 1 39430U 13066Q 26119.97200263 .00001854 00000+0 28540-3 0 9992 2 39430 97.6522 323.4724 0127669 232.0200 126.9421 14.69274777662831 CUBEBUG-2 (LO-74) 1 39440U 13066AA 26119.75968066 .00002891 00000+0 27214-3 0 9990 2 39440 97.8879 68.5580 0057636 186.4022 173.6468 14.93416196669765 FUNCUBE-1 (AO-73) 1 39444U 13066AE 26119.85397480 .00010286 00000+0 64730-3 0 9992 2 39444 97.8250 90.3239 0037122 11.3882 348.8178 15.08818068672370 UWE-3 1 39446U 13066AG 26119.34844746 .00004294 00000+0 37238-3 0 9995 2 39446 97.8662 75.1211 0050947 121.5611 239.0600 14.96614316670278 UNISAT-6 1 40012U 14033C 26119.92117874 .00003708 00000+0 40329-3 0 9994 2 40012 97.7815 273.5089 0044302 226.2411 133.5136 14.87958263638980 DUCHIFAT-1 1 40021U 14033M 26119.40363011 .00063241 00000+0 89083-3 0 9991 2 40021 98.0527 172.0590 0004514 222.9500 137.1401 15.56421456648147 QB50P1 1 40025U 14033R 26119.96026908 .00010084 00000+0 50609-3 0 9996 2 40025 98.0980 127.7514 0009775 40.9513 319.2451 15.17494028645713 LILACSAT-2 1 40908U 15049K 26119.93735525 .00018148 00000+0 32661-3 0 9990 2 40908 97.4720 154.9874 0008670 75.7745 284.4468 15.49842942588270 FOX-1A (AO-85) 1 40967U 15058D 26119.85284493 .00003966 00000+0 35961-3 0 9997 2 40967 64.7755 69.1552 0128613 75.5325 286.0017 14.90669790106369 CAS-2T & KS-1Q 1 41847U 16066G 26119.82465100 .00000664 00000+0 10360-3 0 9996 2 41847 98.3830 196.1065 0340923 276.3336 79.9138 14.44572094497812 RADFXSAT (FOX-1B) 1 43017U 17073E 26119.90573417 .00010169 00000+0 44848-3 0 9995 2 43017 97.4780 348.1280 0154060 134.8510 226.5358 15.11829589458092 DIWATA-2B 1 43678U 18084H 26119.95069696 .00002893 00000+0 23624-3 0 9999 2 43678 98.1069 314.1041 0012990 336.3928 23.6697 15.00211831408986 ES'HAIL 2 1 43700U 18090A 26119.92161803 .00000145 00000+0 00000+0 0 9999 2 43700 0.0134 265.1572 0001669 166.6168 143.7211 1.00276671 27196 FOX-1CLIFF (AO-95) 1 43770U 18099N 26119.69001085 .00011013 00000+0 43496-3 0 9990 2 43770 97.4424 180.1465 0009946 151.0823 209.0968 15.25644841405829 ITASAT 1 43786U 18099AE 26119.85857821 .00007079 00000+0 34634-3 0 9993 2 43786 97.4071 172.3475 0013636 155.0406 205.1491 15.18422342405572 JY1SAT (JO-97) 1 43803U 18099AX 26119.91914792 .00018457 00000+0 59667-3 0 9996 2 43803 97.4167 182.6358 0007271 88.6345 271.5729 15.32108166406239 UWE-4 1 43880U 18111E 26119.75646296 .00029815 00000+0 67150-3 0 9995 2 43880 97.5862 46.0324 0010182 128.1893 232.0273 15.43183960403304 TIANYAN 01 1 44881U 19093C 26119.91481979 .00000811 00000+0 97722-4 0 9994 2 44881 97.7550 193.3226 0012071 243.9260 116.0714 14.86440139344240 RS-44 & BREEZE-KM R/B 1 44909U 19096E 26119.92362211 .00000021 00000+0 44873-4 0 9998 2 44909 82.5259 11.7781 0216379 257.1962 100.4883 12.79747951296175 SALSAT 1 46495U 20068K 26119.53425572 .00008222 00000+0 29370-3 0 9993 2 46495 97.8855 119.6659 0011643 110.4415 249.8075 15.29067816307921 XW-3 (CAS-9) 1 50466U 21131B 26119.94629243 .00000345 00000+0 12047-3 0 9995 2 50466 98.4953 212.6046 0003073 232.3712 127.7198 14.41309330228167 GREENCUBE (IO-117) 1 53109U 22080E 26119.47010391 -.00000003 00000+0 00000+0 0 9996 2 53109 70.1461 315.1961 0008895 300.7857 59.1927 6.42583316 88934 UMKA 1 (RS40S) 1 57172U 23091G 26119.92196896 .00006355 00000+0 29551-3 0 9999 2 57172 97.5090 178.8161 0011254 289.7915 70.2106 15.20266982156672 CUBESX-HSE 3 (RS42S) 1 57178U 23091N 26119.92569192 .00013888 00000+0 47996-3 0 9990 2 57178 97.5127 184.9423 0009475 260.0074 100.0097 15.29999130157048 MONITOR-3 (RS58S) 1 57180U 23091Q 26119.91326264 .00010971 00000+0 41765-3 0 9991 2 57180 97.5119 183.0337 0010251 268.1939 91.8126 15.26872364156921 MONITOR-4 (RS57S) 1 57182U 23091S 26119.89533418 .00010911 00000+0 41419-3 0 9991 2 57182 97.5113 182.9839 0010226 268.6545 91.3522 15.26968993156921 MONITOR-2 (RS39S) 1 57184U 23091U 26119.95027550 .00005090 00000+0 25010-3 0 9996 2 57184 97.5112 178.5520 0009635 281.7002 78.3151 15.18461632156636 SVYATOBOR 1 (RS60S) 1 57187U 23091X 26119.93462778 .00009631 00000+0 37937-3 0 9998 2 57187 97.5125 183.5080 0007987 258.6417 101.3924 15.25789498156952 VIZARD-METEO (RS38S) 1 57189U 23091Z 26119.91505742 .00017049 00000+0 51182-3 0 9997 2 57189 97.5122 188.4854 0006426 232.8448 127.2208 15.34495471157283 POLYTECH-UNIVERSE 3 (R*) 1 57191U 23091AB 26119.91788777 .00005323 00000+0 25960-3 0 9998 2 57191 97.5088 178.0252 0014053 300.0081 59.9758 15.18657552156620 UTMN 2 (RS27S) 1 57203U 23091AP 26119.90485716 .00012693 00000+0 42768-3 0 9991 2 57203 97.5121 186.4953 0006940 242.9257 117.1276 15.30863903157152 KUZGTU 1 (RS47S) 1 57217U 23091AV 26119.94136361 .00012218 00000+0 43902-3 0 9993 2 57217 97.5100 183.9643 0009577 264.1828 95.8319 15.28755913157003 SONATE-2 1 59112U 24043Q 26119.87066923 .00037899 00000+0 55872-3 0 9996 2 59112 97.5477 267.4532 0006548 25.0752 335.0819 15.55284433120374 MESAT1 1 60209U 24125G 26119.56814675 .00046005 00000+0 60347-3 0 9999 2 60209 97.2362 336.1085 0011273 46.0447 314.1737 15.58347583101987 OOV-CUBE (TUBSAT-30) 1 60240U 24128F 26119.94373440 .00002663 00000+0 20993-3 0 9994 2 60240 61.9968 33.7635 0050177 123.1683 237.4236 15.02529245 98867 COLIBRI-S (RS67S) 1 61746U 24199M 26119.92734237 .00023870 00000+0 49411-3 0 9996 2 61746 97.3070 353.3988 0010782 96.4012 263.8466 15.45714528129954 HORS 3 (RS81S) 1 61753U 24199U 26119.90165225 .00033606 00000+0 56276-3 0 9992 2 61753 97.3053 354.8854 0009262 100.3615 259.8682 15.51748651130066 HORS 4 (RS82S) 1 61754U 24199V 26119.92677638 .00044585 00000+0 65244-3 0 9994 2 61754 97.3010 355.8392 0008391 96.6738 263.5472 15.55435188130132 HORIZON (RS59S) 1 61757U 24199Y 26119.91853713 .00463076 87003-4 12757-2 0 9999 2 61757 97.2915 1.7316 0004683 128.2684 231.9014 15.93907491130519 ARCTICSAT 1 (RS74S) 1 61762U 24199AD 26119.93540891 .00239538 00000+0 12969-2 0 9993 2 61762 97.2938 0.6648 0005505 102.6780 257.5103 15.79401342130446 SIT-2086 1 61764U 24199AF 26119.95136218 .00025678 00000+0 45624-3 0 9994 2 61764 97.3029 355.5700 0008649 87.2218 273.0024 15.50133929126955 HYPERVIEW 1G (RS66S) 1 61772U 24199AP 26119.94842774 .00095680 00000+0 93860-3 0 9998 2 61772 97.2980 357.6156 0009152 97.4370 262.7931 15.65716681127107 ALTAIR (RS65S) 1 61779U 24199AW 26119.92089496 .00012832 00000+0 36585-3 0 9996 2 61779 97.3100 349.6070 0014736 116.7177 243.5578 15.36090429129704 ASRTU-1 (AO-123) 1 61781U 24199AY 26119.93489468 .00008407 00000+0 24931-3 0 9998 2 61781 97.3072 349.0495 0015685 118.9485 241.3333 15.34957053126525 TUSUR GO (RS78S) 1 61782U 24199AZ 26119.91061079 .00886383 39132-3 15481-2 0 9999 2 61782 97.2859 0.9030 0005125 155.7053 204.4469 16.02213368127323 SAMSAT-IONOSPHERE (RS7*) 1 61784U 24199BB 26119.94045011 .00044376 00000+0 69308-3 0 9996 2 61784 97.3028 354.8267 0011549 100.4216 259.8340 15.53608562130068 RTU MIREA 1 (RS51S) 1 61785U 24199BC 26119.92871160 .00050873 00000+0 72245-3 0 9990 2 61785 97.3022 355.4325 0011454 98.5952 261.6602 15.56187109126951 TEVEL2-4 1 63213U 25052D 26119.96794197 .00019605 00000+0 61811-3 0 9990 2 63213 97.3964 16.3300 0000415 326.2066 33.9149 15.32922090 62722 TEVEL2-5 1 63214U 25052E 26119.98341441 .00019988 00000+0 63303-3 0 9995 2 63214 97.3959 16.3064 0000484 320.1324 39.9883 15.32774259 62723 TEVEL2-6 1 63215U 25052F 26119.66814804 .00018052 00000+0 57302-3 0 9992 2 63215 97.3963 15.9761 0000586 322.1460 37.9741 15.32723016 62674 TEVEL2-1 1 63217U 25052H 26119.68131180 .00016916 00000+0 54521-3 0 9992 2 63217 97.3937 15.6688 0001182 349.9545 10.1673 15.32247207 62665 TEVEL2-3 1 63218U 25052J 26119.67753660 .00017627 00000+0 56715-3 0 9992 2 63218 97.3940 15.6815 0001214 349.4432 10.6784 15.32293927 62666 TEVEL2-2 1 63219U 25052K 26119.68184078 .00016899 00000+0 54458-3 0 9997 2 63219 97.3938 15.6709 0001188 350.9818 9.1402 15.32252513 62667 TEVEL2-9 1 63237U 25052AD 26119.66420914 .00016399 00000+0 55947-3 0 9996 2 63237 97.4001 15.1281 0004874 331.9722 28.1256 15.30407956 62600 TEVEL2-7 1 63238U 25052AE 26119.69642244 .00015607 00000+0 53682-3 0 9997 2 63238 97.4004 15.0953 0004976 331.7228 28.3742 15.30151827 62606 TEVEL2-8 1 63239U 25052AF 26119.70412721 .00015703 00000+0 54043-3 0 9994 2 63239 97.4002 15.0815 0004964 333.1535 26.9448 15.30132933 62600 HADES-ICM 1 63492U 25052BN 26119.66658166 .00386861 00000+0 20355-2 0 9999 2 63492 97.3827 22.7029 0004291 152.0299 208.1200 15.79660278 63124 INNOSAT 16 (RS92S7) 1 64878U 25155C 26119.91137392 .00007617 00000+0 30845-3 0 9998 2 64878 97.4531 87.2239 0010601 7.2793 352.8597 15.24913660 73311 GEOSCAN 6 (RS92S6) 1 64879U 25155D 26119.90488940 .00012449 00000+0 44130-3 0 9997 2 64879 97.4526 88.3151 0007607 5.6575 354.4750 15.29208207 73388 GEOSCAN 1 (RS92S1) 1 64880U 25155E 26119.92488294 .00013504 00000+0 47089-3 0 9992 2 64880 97.4523 88.4441 0007544 5.9081 354.2247 15.29727082 73392 239ALFEROV (RS61S) 1 64881U 25155F 26119.95856526 .00016317 00000+0 53615-3 0 9990 2 64881 97.4525 88.8885 0007084 7.3225 352.8118 15.31613074 73429 GEOSCAN 2 (RS92S2) 1 64890U 25155Q 26119.92729708 .00013606 00000+0 47037-3 0 9997 2 64890 97.4521 88.5797 0006424 354.0325 6.0838 15.30014017 73400 GEOSCAN 5 (RS92S5) 1 64891U 25155R 26119.95765280 .00016012 00000+0 52099-3 0 9994 2 64891 97.4518 89.0066 0006329 16.8983 343.2468 15.31938838 73434 GEOSCAN 4 (RS92S4) 1 64892U 25155S 26119.94621636 .00016623 00000+0 53860-3 0 9995 2 64892 97.4521 89.0309 0006335 17.2935 342.8521 15.32065722 73437 GEOSCAN 3 (RS92S3) 1 64893U 25155T 26119.93912139 .00020397 00000+0 62634-3 0 9998 2 64893 97.4509 89.3260 0006151 20.8820 339.2672 15.33739054 73458 INNOSAT 3 (RS92S0) 1 64894U 25155U 26119.90570097 .00040707 00000+0 10014-2 0 9990 2 64894 97.4470 90.3807 0005420 31.4051 328.7518 15.40496189 73524 KNACKSAT-2 1 67683U 98067XZ 26119.85332384 .00037628 00000+0 53471-3 0 9993 2 67683 51.6295 176.8122 0012619 18.3620 341.7824 15.55930236 12748